Station PNLM4 - 9087096 - Port Inland, MI Image indicating link to RSS feed of recent meteorological observations for station PNLM4


Conditions at PNLM4 as of
(3:00 pm EDT)
1900 GMT on 05/28/2024:
     

Click on the graph icon in the table below to see a time series plot of the last five days of that observation.

5-day plot - Wind Direction Wind Direction (WDIR): NW ( 320 deg true )
5-day plot - Wind Speed Wind Speed (WSPD): 14.0 kts
5-day plot - Wind Gust Wind Gust (GST): 19.0 kts
5-day plot - Atmospheric Pressure Atmospheric Pressure (PRES):29.91 in
5-day plot - Pressure Tendency Pressure Tendency (PTDY):+0.03 in ( Rising )
5-day plot - Air Temperature Air Temperature (ATMP): 63.5 °F
5-day plot - Water Temperature Water Temperature (WTMP): 54.9 °F
5-day plot - Wind Speed at 10 Meters Wind Speed at 10 meters (WSPD10M): 13.6 kts
5-day plot - Wind Speed at 20 Meters Wind Speed at 20 meters (WSPD20M): 15.5 kts
5-day plot -  Wind Speed, Wind Gust and Atmospheric Pressure Combined plot of Wind Speed, Gust, and Air Pressure
NOS Water Level Observation Network Water Level
Previous observations
TIME
(EDT)
5-day plot - Wind Direction
WDIR
 
5-day plot - Wind Speed
WSPD
kts
5-day plot - Wind Gust
GST
kts
5-day plot - Wave Height
WVHT
ft
5-day plot - Dominant Wave Period
DPD
sec
5-day plot - Average Wave Period
APD
sec
5-day plot - Mean Wave Direction
MWD
 
5-day plot - Atmospheric Pressure
PRES
in
5-day plot - Pressure Tendency
PTDY
in
5-day plot - Air Temperature
ATMP
°F
5-day plot - Water Temperature
WTMP
°F
5-day plot - Dew Point
DEWP
°F
5-day plot - Salinity
SAL
psu
5-day plot - Visibility
VIS
nmi
5-day plot - Tide (above MLLW)
TIDE
ft
2024-05-28 02:54 pmNNW 15.0 22.0----29.91- 63.7 54.9----
2024-05-28 02:48 pmNNW 13.0 19.0----29.91- 64.0 54.9----
2024-05-28 02:42 pm NW 11.1 18.1----29.91- 64.6 54.9----
2024-05-28 02:36 pm N 12.0 18.1----29.90- 64.4 54.9----
2024-05-28 02:30 pmNNW 12.0 19.0----29.90- 63.9 54.9----
2024-05-28 02:24 pm N 12.0 19.0----29.90- 64.4 54.9----
2024-05-28 02:18 pmNNW 13.0 18.1----29.90- 64.4 54.9----
2024-05-28 02:12 pmNNW 9.9 19.0----29.90- 64.8 54.9----
2024-05-28 02:06 pm N 11.1 19.0----29.90- 64.6 54.9----
2024-05-28 02:00 pm NW 9.9 17.1----29.90+0.03 64.8 54.9----
2024-05-28 01:54 pmNNW 14.0 19.0----29.89- 64.4 54.9----
2024-05-28 01:48 pm N 11.1 19.0----29.90- 65.3 54.9----
2024-05-28 01:42 pmNNW 15.0 22.0----29.89- 64.2 54.9----
2024-05-28 01:36 pm NW 12.0 19.0----29.89- 64.6 54.9----
2024-05-28 01:30 pmNNW 9.9 17.1----29.89- 64.6 54.9----
2024-05-28 01:24 pmNNW 8.9 15.0----29.89- 64.9 54.9----
2024-05-28 01:18 pmNNW 9.9 15.9----29.89- 64.4 54.9----
2024-05-28 01:12 pm N 13.0 18.1----29.88- 64.6 54.9----
2024-05-28 01:06 pm N 13.0 22.9----29.88- 64.0 54.9----
2024-05-28 01:00 pm NW 11.1 19.0----29.88+0.02 64.6 54.9----
2024-05-28 12:54 pmNNW 8.0 17.1----29.88- 64.8 54.9----
2024-05-28 12:48 pmNNW 13.0 18.1----29.88- 64.0 54.9----
2024-05-28 12:42 pmNNW 11.1 17.1----29.88- 64.9 54.9----
2024-05-28 12:36 pmNNW 12.0 18.1----29.88- 64.9 54.9----
2024-05-28 12:30 pm N 13.0 18.1----29.88- 64.4 54.9----
2024-05-28 12:24 pm N 11.1 15.0----29.88- 64.4 54.9----
2024-05-28 12:18 pmNNW 12.0 17.1----29.88- 63.7 54.9----
2024-05-28 12:12 pm N 12.0 15.0----29.88- 63.5 54.9----
2024-05-28 12:06 pmNNW 8.0 15.0----29.88- 64.6 54.9----
2024-05-28 12:00 pm N 9.9 18.1----29.88+0.03 63.5 54.9----
2024-05-28 11:54 amNNW 9.9 15.9----29.88- 63.5 54.9----
2024-05-28 11:48 amNNW 9.9 17.1----29.87- 62.8 54.9----
2024-05-28 11:42 amNNW 14.0 18.1----29.87- 62.2 54.9----
2024-05-28 11:36 amNNW 9.9 20.0----29.87- 62.6 54.9----
2024-05-28 11:30 am N 13.0 15.9----29.87- 62.4 54.9----
2024-05-28 11:24 amNNW 11.1 19.0----29.87- 62.4 54.9----
2024-05-28 11:18 amNNW 8.0 13.0----29.87- 62.4 54.9----
2024-05-28 11:12 am N 8.9 13.0----29.87- 62.1 54.9----
2024-05-28 11:06 am N 7.0 13.0----29.87- 62.1 54.9----
2024-05-28 11:00 amNNW 9.9 14.0----29.87+0.04 61.3 54.9----
2024-05-28 10:54 amNNW 9.9 13.0----29.87- 61.2 54.9----
2024-05-28 10:48 am N 8.0 12.0----29.86- 60.8 54.9----
2024-05-28 10:42 am N 8.0 13.0----29.86- 60.3 54.9----
2024-05-28 10:36 am N 7.0 12.0----29.86- 59.9 54.9----
2024-05-28 10:30 am N 7.0 12.0----29.86- 59.5 54.9----
2024-05-28 10:24 am N 7.0 12.0----29.86- 59.0 54.9----
2024-05-28 10:18 am N 8.9 12.0----29.86- 58.5 54.9----
2024-05-28 10:12 amNNW 9.9 13.0----29.86- 57.9 54.9----
2024-05-28 10:06 am N 11.1 13.0----29.86- 57.0 54.9----
2024-05-28 10:00 am N 8.0 12.0----29.86+0.06 56.8 54.9----
2024-05-28 09:54 am N 8.9 13.0----29.86- 55.9 54.9----
2024-05-28 09:48 am N 9.9 13.0----29.86- 54.9 54.9----
2024-05-28 09:42 am N 7.0 13.0----29.86- 54.7 54.9----
2024-05-28 09:36 am N 8.9 12.0----29.85- 53.8 54.9----
2024-05-28 09:30 am N 8.0 12.0----29.85- 53.2 54.9----
2024-05-28 09:24 am N 8.9 12.0----29.85- 52.9 54.9----
2024-05-28 09:18 am N 8.0 11.1----29.85- 52.5 54.9----
2024-05-28 09:12 am N 8.9 11.1----29.85- 52.3 54.9----
2024-05-28 09:06 am N 8.9 12.0----29.85- 52.0 54.9----
2024-05-28 09:00 am N 8.9 12.0----29.84+0.07 51.8 54.9----
2024-05-28 08:54 am N 7.0 11.1----29.84- 51.8 54.9----
2024-05-28 08:48 am N 8.0 9.9----29.84- 51.6 54.9----
2024-05-28 08:42 am N 7.0 9.9----29.84- 51.6 54.9----
2024-05-28 08:36 am N 8.9 11.1----29.83- 51.4 54.9----
2024-05-28 08:30 am N 8.0 12.0----29.83- 51.3 54.9----
2024-05-28 08:24 am N 9.9 12.0----29.83- 51.1 54.9----
2024-05-28 08:18 am N 8.9 12.0----29.83- 51.1 54.9----
2024-05-28 08:12 amNNW 8.0 11.1----29.83- 50.9 54.9----
2024-05-28 08:06 amNNW 8.0 12.0----29.83- 50.9 54.9----
2024-05-28 08:00 amNNW 8.9 12.0----29.83+0.07 50.7 54.9----
2024-05-28 07:54 amNNW 8.9 13.0----29.82- 50.5 54.9----
2024-05-28 07:48 amNNW 9.9 12.0----29.82- 50.4 54.9----
2024-05-28 07:42 amNNW 9.9 14.0----29.82- 50.0 54.9----
2024-05-28 07:36 amNNW 8.9 12.0----29.81- 49.6 54.9----
2024-05-28 07:30 am N 7.0 11.1----29.81- 49.3 54.9----
2024-05-28 07:24 am N 8.9 12.0----29.81- 48.9 54.9----
2024-05-28 07:18 amNNW 8.9 13.0----29.81- 48.7 54.9----
2024-05-28 07:12 amNNW 8.0 12.0----29.80- 48.7 54.9----
2024-05-28 07:06 amNNW 8.9 13.0----29.80- 48.6 54.9----
2024-05-28 07:00 am N 8.9 11.1----29.80+0.06 48.2 54.9----
2024-05-28 06:54 amNNW 8.0 11.1----29.80- 48.0 54.9----
2024-05-28 06:48 amNNW 8.0 11.1----29.80- 47.8 54.9----
2024-05-28 06:42 amNNW 8.0 11.1----29.79- 47.7 54.9----
2024-05-28 06:36 am N 8.0 11.1----29.79- 47.7 54.7----
2024-05-28 06:30 am N 8.9 11.1----29.78- 47.7 54.7----
2024-05-28 06:24 am N 8.9 11.1----29.78- 47.7 54.7----
2024-05-28 06:18 am N 8.0 11.1----29.78- 47.7 54.7----
2024-05-28 06:12 amNNW 8.0 11.1----29.78- 47.8 54.7----
2024-05-28 06:06 am N 8.9 12.0----29.78- 48.0 54.7----
2024-05-28 06:00 am N 8.9 13.0----29.78+0.04 48.2 54.7----
2024-05-28 05:54 am N 8.9 12.0----29.77- 48.4 54.7----
2024-05-28 05:48 am N 8.9 11.1----29.77- 48.4 54.7----
2024-05-28 05:42 am N 9.9 12.0----29.77- 48.7 54.7----
2024-05-28 05:36 am N 8.9 13.0----29.77- 48.7 54.7----
2024-05-28 05:30 am N 8.9 14.0----29.77- 48.9 54.7----
2024-05-28 05:24 am N 9.9 14.0----29.76- 49.1 54.7----
2024-05-28 05:18 am N 9.9 13.0----29.76- 48.9 54.7----
2024-05-28 05:12 am N 8.9 11.1----29.76- 48.9 54.7----
2024-05-28 05:06 am N 8.0 11.1----29.76- 48.9 54.7----
2024-05-28 05:00 am N 8.9 11.1----29.75+0.02 49.1 54.7----
2024-05-28 04:54 am N 8.9 12.0----29.75- 49.3 54.7----
2024-05-28 04:48 am N 8.9 12.0----29.75- 49.3 54.7----
2024-05-28 04:42 am N 8.0 11.1----29.75- 49.3 54.7----
2024-05-28 04:36 amNNW 8.0 12.0----29.75- 49.3 54.7----
2024-05-28 04:30 amNNW 7.0 11.1----29.75- 49.3 54.7----
2024-05-28 04:24 am N 8.9 9.9----29.75- 49.5 54.7----
2024-05-28 04:18 amNNW 8.0 11.1----29.75- 49.3 54.7----
2024-05-28 04:12 amNNW 7.0 8.9----29.74- 49.3 54.7----
2024-05-28 04:06 amNNW 6.0 8.9----29.74- 49.1 54.7----
2024-05-28 04:00 amNNW 6.0 8.9----29.74+0.01 49.3 54.7----
2024-05-28 03:54 amNNW 7.0 9.9----29.74- 49.5 54.7----
2024-05-28 03:48 amNNW 7.0 11.1----29.74- 49.5 54.7----
2024-05-28 03:42 am N 7.0 8.9----29.74- 49.6 54.7----
2024-05-28 03:36 amNNW 5.1 8.0----29.74- 49.8 54.7----
2024-05-28 03:30 amNNW 7.0 8.9----29.74- 50.2 54.7----
2024-05-28 03:24 amNNW 6.0 9.9----29.74- 50.4 54.7----
2024-05-28 03:18 amNNW 7.0 8.9----29.74- 50.5 54.7----
2024-05-28 03:12 amNNW 7.0 9.9----29.74- 50.7 54.7----
2024-05-28 03:06 amNNW 5.1 8.9----29.74- 50.5 54.7----
2024-05-28 03:00 amNNW 6.0 8.0----29.74+0.01 50.7 54.7----
2024-05-28 02:54 amNNW 6.0 8.9----29.74- 50.9 54.7----
2024-05-28 02:48 am N 5.1 8.0----29.74- 51.1 54.7----
2024-05-28 02:42 amNNW 6.0 8.0----29.74- 51.4 54.7----
2024-05-28 02:36 am N 6.0 8.9----29.73- 51.6 54.7----
2024-05-28 02:30 am N 7.0 9.9----29.73- 51.4 54.7----
2024-05-28 02:24 am N 7.0 8.9----29.73- 51.4 54.7----
2024-05-28 02:18 am N 7.0 8.9----29.73- 51.4 54.7----
2024-05-28 02:12 am N 7.0 8.0----29.73- 51.6 54.7----
2024-05-28 02:06 amNNW 6.0 8.0----29.74- 51.6 54.7----
2024-05-28 02:00 amNNW 6.0 8.9----29.74+0.02 51.8 54.7----
2024-05-28 01:54 amNNW 6.0 8.0----29.74- 51.8 54.7----
2024-05-28 01:48 amNNW 6.0 9.9----29.74- 52.0 54.7----
2024-05-28 01:42 amNNW 8.9 9.9----29.74- 52.3 54.7----
2024-05-28 01:36 amNNW 6.0 9.9----29.74- 52.2 54.7----
2024-05-28 01:30 amNNW 6.0 8.9----29.74- 52.2 54.7----
2024-05-28 01:24 amNNW 7.0 9.9----29.73- 52.0 54.7----
2024-05-28 01:18 amNNW 6.0 8.9----29.73- 52.2 54.7----
2024-05-28 01:12 amNNW 6.0 8.0----29.73- 51.8 54.7----
2024-05-28 01:06 amNNW 5.1 7.0----29.73- 51.6 54.7----
2024-05-28 01:00 amNNW 5.1 7.0----29.73+0.03 51.8 54.7----
2024-05-28 12:54 amNNW 5.1 7.0----29.73- 51.8 54.7----
2024-05-28 12:48 amNNW 5.1 7.0----29.73- 52.0 54.7----
2024-05-28 12:42 am N 5.1 7.0----29.73- 52.0 54.7----
2024-05-28 12:36 am N 5.1 7.0----29.73- 52.3 54.7----
2024-05-28 12:30 am N 5.1 8.0----29.73- 52.5 54.5----
2024-05-28 12:24 am N 6.0 8.0----29.73- 52.7 54.5----
2024-05-28 12:18 amNNW 6.0 9.9----29.72- 52.9 54.5----
2024-05-28 12:12 amNNW 7.0 9.9----29.72- 53.2 54.5----
2024-05-28 12:06 amNNW 8.0 12.0----29.72- 53.6 54.5----
2024-05-28 12:00 amNNW 7.0 11.1----29.72+0.04 53.6 54.5----
2024-05-27 11:54 pmNNW 7.0 8.9----29.72- 53.8 54.5----
2024-05-27 11:48 pmNNW 8.9 12.0----29.72- 54.0 54.5----
2024-05-27 11:42 pmNNW 8.9 13.0----29.72- 54.0 54.5----
2024-05-27 11:36 pmNNW 8.9 12.0----29.72- 54.1 54.5----
2024-05-27 11:30 pmNNW 8.0 9.9----29.72- 54.1 54.5----
2024-05-27 11:24 pmNNW 7.0 8.9----29.72- 54.3 54.5----
2024-05-27 11:18 pmNNW 7.0 9.9----29.72- 54.5 54.5----
2024-05-27 11:12 pmNNW 8.9 11.1----29.72- 54.7 54.5----
2024-05-27 11:06 pmNNW 8.9 12.0----29.71- 54.5 54.5----
2024-05-27 11:00 pmNNW 7.0 9.9----29.72+0.05 54.5 54.5----
2024-05-27 10:54 pmNNW 6.0 9.9----29.72- 54.3 54.5----
2024-05-27 10:48 pmNNW 6.0 9.9----29.71- 54.1 54.5----
2024-05-27 10:42 pm N 6.0 8.9----29.71- 54.1 54.5----
2024-05-27 10:36 pmNNW 6.0 8.9----29.71- 54.3 54.5----
2024-05-27 10:30 pmNNW 5.1 7.0----29.71- 54.1 54.5----
2024-05-27 10:24 pm N 6.0 8.0----29.71- 54.1 54.5----
2024-05-27 10:18 pmNNW 6.0 8.0----29.71- 54.3 54.5----
2024-05-27 10:12 pmNNW 6.0 8.0----29.71- 54.5 54.5----
2024-05-27 10:06 pmNNW 7.0 9.9----29.71- 54.9 54.5----
2024-05-27 10:00 pmNNW 6.0 8.9----29.70+0.05 54.7 54.5----
2024-05-27 09:54 pmNNW 6.0 11.1----29.70- 54.7 54.5----
2024-05-27 09:48 pmNNW 8.0 9.9----29.70- 55.0 54.5----
2024-05-27 09:42 pmNNW 8.9 11.1----29.70- 55.2 54.5----
2024-05-27 09:36 pmNNW 8.0 11.1----29.70- 55.2 54.5----
2024-05-27 09:30 pmNNW 7.0 8.9----29.69- 55.2 54.5----
2024-05-27 09:24 pmNNW 6.0 8.9----29.69- 55.2 54.5----
2024-05-27 09:18 pmNNW 7.0 9.9----29.69- 55.4 54.5----
2024-05-27 09:12 pmNNW 7.0 11.1----29.69- 55.4 54.5----
2024-05-27 09:06 pmNNW 6.0 12.0----29.69- 55.6 54.5----
2024-05-27 09:00 pmNNW 8.9 13.0----29.69- 55.8 54.5----
2024-05-27 08:54 pmNNW 7.0 13.0----29.68- 55.9 54.5----
2024-05-27 08:48 pmNNW 8.0 11.1----29.68- 56.1 54.5----
2024-05-27 08:42 pmNNW 6.0 12.0----29.68- 56.3 54.5----
2024-05-27 08:36 pmNNW 8.9 14.0----29.68- 56.3 54.5----
2024-05-27 08:30 pmNNW 7.0 11.1----29.68- 56.5 54.5----
2024-05-27 08:24 pmNNW 8.9 14.0----29.67- 56.7 54.5----
2024-05-27 08:18 pm NW 8.9 13.0----29.67- 56.8 54.5----
2024-05-27 08:12 pmNNW 8.0 13.0----29.67- 57.0 54.5----
2024-05-27 08:06 pm NW 8.0 12.0----29.67- 56.8 54.5----
2024-05-27 08:00 pm NW 7.0 8.9----29.67+0.04 56.8 54.5----
2024-05-27 07:54 pm NW 5.1 8.0----29.67- 56.7 54.5----
2024-05-27 07:48 pmNNW 8.0 12.0----29.67-- 54.5----
2024-05-27 07:42 pmNNW 8.0 9.9----29.67-- 54.5----
2024-05-27 07:36 pmNNW 8.9 11.1----29.67-- 54.5----
2024-05-27 07:30 pmNNW 7.0 8.9----29.67- 56.1 54.5----
2024-05-27 07:24 pmNNW 6.0 11.1----29.67- 56.1 54.5----
2024-05-27 07:18 pmNNW 8.0 13.0----29.66- 55.9 54.5----
2024-05-27 07:12 pmNNW 9.9 12.0----29.66- 55.8 54.5----
2024-05-27 07:06 pmNNW 8.9 13.0----29.66- 55.6 54.5----
2024-05-27 07:00 pmNNW 8.9 13.0----29.66+0.04 55.4 54.5----
2024-05-27 06:54 pmNNW 9.9 15.0----29.65- 55.4 54.5----
2024-05-27 06:48 pmNNW 12.0 15.9----29.65- 55.2 54.5----
2024-05-27 06:42 pmNNW 9.9 15.0----29.65- 55.2 54.5----
2024-05-27 06:36 pmNNW 9.9 14.0----29.65- 55.0 54.5----
2024-05-27 06:30 pmNNW 11.1 15.0----29.65- 54.9 54.5----
2024-05-27 06:24 pmNNW 8.9 13.0----29.65- 54.5 54.5----
2024-05-27 06:18 pmNNW 11.1 17.1----29.65- 54.3 54.5----
2024-05-27 06:12 pmNNW 9.9 15.9----29.65- 54.0 54.5----
2024-05-27 06:06 pmNNW 9.9 14.0----29.65- 53.8 54.5----
2024-05-27 06:00 pm--------- 53.4 54.3----
2024-05-27 05:54 pm--------- 53.4 54.3----
2024-05-27 05:48 pmNNW 11.1 17.1----29.65- 53.2 54.3----
2024-05-27 05:42 pmNNW 11.1 15.0----29.65- 53.1 54.3----
2024-05-27 05:36 pmNNW 11.1 18.1----29.65- 53.1 54.3----
2024-05-27 05:30 pmNNW 13.0 18.1----29.65-- 54.3----
2024-05-27 05:24 pmNNW 8.9 17.1----29.65-- 54.3----
2024-05-27 05:18 pmNNW 13.0 20.0----29.65- 52.9 54.3----
2024-05-27 05:12 pmNNW 13.0 19.0----29.64- 53.2 54.3----
2024-05-27 05:06 pmNNW 14.0 20.0----29.64- 53.6 54.3----
2024-05-27 05:00 pmNNW 15.0 20.0----29.63+0.04 54.9 54.3----
2024-05-27 04:54 pm NW 8.0 12.0----29.63- 57.6 54.3----
2024-05-27 04:48 pmNNW 9.9 13.0----29.62- 57.6 54.3----
2024-05-27 04:42 pmNNW 11.1 15.0----29.62- 57.4 54.3----
2024-05-27 04:36 pmNNW 8.9 11.1----29.62- 57.2 54.3----
2024-05-27 04:30 pm-------29.62- 57.2 54.3----
2024-05-27 04:24 pm-------29.62- 57.0 54.3----
2024-05-27 04:18 pm N 8.0 11.1----29.62- 57.0 54.3----
2024-05-27 04:12 pmNNW 9.9 14.0----29.62- 57.0 54.3----
2024-05-27 04:06 pmNNW 8.0 12.0----29.62- 57.0 54.3----
2024-05-27 04:00 pmNNW 8.9 14.0----29.62+0.04 56.8 54.3----
2024-05-27 03:54 pm N 7.0 12.0----29.61- 56.8 54.3----
2024-05-27 03:48 pm N 7.0 8.9------ 56.5 54.3----
2024-05-27 03:42 pm N 7.0 9.9------ 56.5 54.3----
2024-05-27 03:36 pm N 6.0 8.9------ 56.3 54.3----
2024-05-27 03:30 pm N 5.1 9.9----29.60- 56.3 54.3----
2024-05-27 03:24 pm N 8.0 9.9----29.60- 56.3 54.3----
2024-05-27 03:18 pm N 7.0 11.1----29.60- 56.1 54.3----
2024-05-27 03:12 pm N 8.0 9.9----29.60- 56.1 54.3----
2024-05-27 03:06 pm N 7.0 12.0----29.60- 56.3 54.3----
2024-05-27 03:00 pm N 7.0 8.9----29.60+0.04 56.1 54.3----
2024-05-27 02:54 pm N 8.0 11.1----29.60- 56.1 54.3----